ARIANE 5 R/B, 44802

Orbit data source: Space-Track

ARIANE 5 R/B, 44802 is space debris in HEO originally from a launch on Tue, 26 Nov 2019 UTC launched from the French Guiana (FRGUI). Debris objects in space refer to the collection of defunct objects orbiting the Earth. Examples of debris include non-operational satellites, rocket bodies, and fragments generated from explosions, collisions, or faulty payload assembly.

Loading next visibility...
Identifier
44802, 2019-080C
Orbit
HEO
Country
Flag of FRFR
Related business
Manufacturer
ArianeGroup
Mission
Spacecraft
Bus & Motor
ESC-A, Unknown motor
Mass
~5,000 kg wet, ~5,000 kg dry
Launch date (UTC)
2019-11-26 (6 years ago)
Launch vehicle
Unknown
Launch site
French Guiana (FRGUI)
Object type
Payload
Rocket body
Debris
Shape & HBR
Cyl + 1 Nozzle, 3.5 m
Radar Cross Section
41.627 m², Large (>1 m²)

Expand to show TLE details & history
Last TLE update: 10 hours ago

TLE from 10 hours ago
0 ARIANE 5 R/B
1 44802U 19080C   25261.18224683  .00003751  00000-0  69581-3 0  9994
2 44802   5.7850 321.1170 7010531 301.5116   8.6268  2.63432164 52091
Epoch: 2025-09-18T04:22Z
TLE epoch observation values (Epoch: 2025-09-18T04:22:26.126Z)
Latitude
-0.00001°
Longitude
-101.7463°
Altitude
1,892.986 km
Speed
8.853 km/s
True Right ascension
21h 24m 50s
True Declination
0° 00' 00"
Sunlit
Object was in full shadow at epoch
Visualization orbit readout
Latitude
Unknown
Longitude
Unknown
Altitude
Unknown
Speed
Unknown
Apparent Right ascension
Unknown
Apparent Declination
Unknown
Sunlit
N/A
Visualization observer readout
Local Sidereal Time
07:38:52
Azimuth
Unknown
Elevation
Unknown
Doppler factor
Unknown
Orbital elements
Apogee altitude
31,302.077 km
Perigee altitude
243.869 km
Semi-major axis
22,151.11 km
Eccentricity
0.70105
Inclination
5.785°
RAAN
321.117°
Arg. of periapsis
301.5116°
True anomaly
58.89804°
Mean anomaly
8.6268°
Eccentric anomaly
26.63245°
Mean motion
0.65834 °/min
Orbital period
546.83 mins
BSTAR
0.00069581
Loading maneuver chart data...
Computing Atmospheric mass density...
Loading historical data...
Loading historical data...
Loading historical data...
Loading historical data...
Loading historical data...
Loading historical data...
Loading historical data...
Other satellites on launch #80 in the year 2019 (2019-11-26 UTC)

Documentation

Showing up to 5 results
|